Hourly Data Report for July 13, 2019

PITT MEADOWS CS
BRITISH COLUMBIA
Current Station Operator: ECCC - MSC

49°12'29.964" N
122°41'24.076" W
5.00 m
1106178
71775
WMM

Download Data

Hourly Data (July 2019)
Hourly Data Report for July 13, 2019
TIME
LST
Temp Definition
°C
Dew Point Definition
°C
Rel Hum Definition
%
Precip. Amount Definition
mm

Wind Dir Definition
10's deg

Wind Spd Definition
km/h
Visibility Definition
km
Stn Press Definition
kPa
Hmdx Definition


Wind Chill Definition


Weather Definition


00:00 15.0 12.5 85 0.0 4 4   101.45     LegendNANA
01:00 15.0 12.9 87 0.0 0 1   101.44     LegendNANA
02:00 14.3 12.8 91 0.0   0   101.44     LegendNANA
03:00 14.0 12.7 92 0.0 13 2   101.43     LegendNANA
04:00 14.5 13.3 93 0.0 14 2   101.44     LegendNANA
05:00 15.4 14.1 92 0.0   0   101.47     LegendNANA
06:00 16.5 14.1 86 0.0 0 1   101.50     LegendNANA
07:00 17.4 13.7 79 0.0 20 3   101.54     LegendNANA
08:00 17.0 13.9 82 0.2 23 5   101.57     LegendNANA
09:00 17.9 13.6 76 0.0 10 1   101.57     LegendNANA
10:00 18.5 13.9 75 0.0 8 4   101.57     LegendNANA
11:00 19.8 14.3 71 0.0 8 5   101.60     LegendNANA
12:00 20.3 14.9 71 0.0 4 4   101.62     LegendNANA
13:00 21.8 14.0 61 0.2 14 3   101.60 25   LegendNANA
14:00 23.7 14.7 57 0.0 12 5   101.57 27   LegendNANA
15:00 23.4 14.7 58 0.0 12 9   101.53 27   LegendNANA
16:00 24.3 12.0 46 0.1 19 5   101.50 27   LegendNANA
17:00 24.0 11.7 46 0.0 20 8   101.48 26   LegendNANA
18:00 23.5 11.8 48 0.0 22 8   101.46 26   LegendNANA
19:00 22.6 11.1 48 0.0 22 4   101.47     LegendNANA
20:00 21.1 11.6 55 0.0 12 3   101.48     LegendNANA
21:00 19.1 13.3 69 0.0 7 4   101.51     LegendNANA
22:00 17.2 13.1 77 0.0 0 1   101.52     LegendNANA
23:00 16.3 13.1 81 0.0 8 5   101.51     LegendNANA

Notes on Data Quality.

Legend

  • E = Estimated
  • M = Missing
  • NA = Not Available*
  • [empty] = Indicates an unobserved value
Date modified: